Wind_Speed
19 18 18 18 19 19 20 20 20 20 19 18 17 18 19 19 20 20 21 21 21 19 18 17 16 17 18 17 17 18 18 18 17 16 15 14 14 14 14 13 14 15 16 17 17 18 18 17 16 15 15 14 14 15 15 15 14 14 14 14 14 14 14 15 15 15 16 16 16 17 17 17 17 17 18 18 18 18 18 18 19 19 19 20 20
16 16 17 18 19 20 20 20 20 19 18 17 17 18 19 19 20 20 20 20 20 20 18 17 17 17 18 17 17 18 19 18 17 15 14 13 14 14 13 13 14 15 16 16 17 18 18 18 18 17 16 16 16 16 16 16 16 16 16 16 16 16 16 17 17 17 18 18 18 18 19 19 19 19 20 20 20 20 20 20 20 20 20 20 21
16 17 18 19 19 20 19 19 18 17 17 17 17 17 18 19 19 19 20 20 20 21 20 18 17 18 18 18 18 18 19 18 17 16 16 16 16 17 17 17 18 18 18 18 18 18 18 18 19 19 19 18 18 18 18 18 18 18 18 19 19 19 19 19 19 19 19 19 20 20 21 21 21 21 22 22 22 22 22 22 22 22 23 22 22
18 19 19 19 19 20 19 19 18 18 18 18 18 18 19 20 20 21 22 22 22 23 21 19 18 18 18 18 19 20 20 19 19 20 20 19 19 19 19 20 20 20 20 21 21 21 21 21 21 21 21 21 20 20 20 20 20 20 20 21 21 21 21 22 22 22 21 21 22 22 22 23 23 23 23 24 24 24 24 24 25 25 25 25 25
18 18 18 18 19 19 20 20 20 20 21 21 20 20 20 21 21 21 21 21 21 21 20 19 18 18 19 19 20 22 22 22 22 22 22 22 21 20 20 21 21 21 22 22 23 23 24 25 24 24 23 23 22 22 21 22 22 22 22 23 23 23 23 23 23 23 23 24 24 24 24 24 24 25 25 25 25 26 26 26 27 27 27 27 28
17 17 17 18 20 21 22 22 23 24 24 23 23 23 22 22 21 20 19 19 19 19 19 18 18 18 19 19 21 23 24 24 24 24 24 23 23 22 22 23 22 21 21 22 23 23 24 24 24 24 25 25 26 25 24 24 24 25 25 26 26 26 25 25 25 25 25 25 26 26 27 27 27 27 27 27 27 28 28 29 29 29 29 29 29
19 19 19 19 20 21 22 24 24 24 23 22 23 23 23 22 21 20 19 19 19 19 19 20 21 20 20 20 22 23 25 25 25 26 26 25 25 25 24 24 23 23 22 23 23 24 24 24 24 24 25 26 27 28 26 26 27 27 28 29 29 29 28 28 28 29 29 29 28 28 28 29 29 29 29 30 30 31 31 32 32 32 33 33 33
19 21 21 21 21 22 23 24 24 22 21 21 22 23 22 22 22 21 21 21 21 21 21 21 22 22 21 21 22 23 25 26 27 27 27 27 27 27 25 24 24 24 24 24 25 26 26 26 26 26 26 26 26 27 27 27 28 29 29 31 32 32 32 31 32 33 34 34 34 33 32 32 32 32 32 32 33 34 34 35 36 36 36 37 37
19 20 20 21 21 21 23 25 25 25 24 24 25 25 24 24 24 24 25 25 25 24 23 23 23 23 23 23 24 25 26 28 29 30 30 29 29 28 28 27 27 26 27 27 28 29 30 30 30 31 30 29 29 29 29 30 32 33 33 34 35 36 35 34 35 37 37 38 38 38 38 38 37 36 36 36 36 37 38 38 38 39 39 40 40
23 22 22 22 22 22 23 24 26 27 28 28 28 27 27 27 27 28 29 29 29 27 26 26 27 27 28 27 28 28 29 29 30 30 31 31 31 31 31 31 31 31 32 32 32 33 34 34 35 36 35 35 35 34 35 36 37 37 37 36 36 37 37 37 38 38 39 41 42 42 43 44 43 42 42 41 41 42 43 43 43 44 44 44 44
27 27 28 28 28 27 27 28 29 30 32 33 32 31 32 32 32 32 33 33 32 31 30 30 31 32 32 32 31 31 31 31 31 31 32 33 34 35 35 35 36 37 37 37 36 37 37 37 38 39 40 40 40 40 41 41 41 41 40 39 38 37 38 39 40 40 40 42 43 44 45 46 46 45 46 46 46 47 47 48 49 50 51 51 50
32 32 32 33 33 33 33 33 34 34 35 36 36 37 37 37 37 37 38 37 37 37 36 35 35 35 36 35 35 35 35 35 35 36 36 37 38 39 40 40 41 41 40 40 39 39 39 39 40 41 41 42 42 43 43 44 44 43 43 42 41 41 40 41 42 43 44 45 46 46 47 48 49 48 48 49 50 50 51 52 54 55 56 56 56
37 37 38 38 38 38 39 39 39 39 39 39 40 40 40 40 40 41 41 41 41 41 40 40 39 39 39 38 39 39 39 40 41 41 42 42 43 43 43 43 43 42 41 41 41 41 41 41 42 42 43 42 42 42 43 44 44 43 43 43 43 43 44 45 46 47 48 49 49 49 50 51 52 52 52 52 53 53 54 56 58 58 59 59 59
40 41 42 42 42 42 42 43 42 42 42 42 42 43 43 42 42 43 43 43 43 42 39 39 41 42 42 41 41 42 43 43 44 45 45 45 44 44 44 43 42 42 42 43 43 43 43 43 43 43 44 43 42 42 41 42 42 42 43 44 44 45 45 46 47 48 49 49 50 51 51 52 53 53 54 54 55 55 56 57 59 60 61 61 61
40 41 41 41 41 41 41 41 42 42 42 42 42 43 45 45 45 46 46 46 46 44 42 43 45 45 45 45 44 44 45 45 45 46 45 45 44 43 43 43 43 44 44 44 44 44 43 43 43 44 45 45 45 44 43 42 43 43 44 45 46 47 47 48 48 48 49 50 50 51 51 52 53 53 54 55 55 56 56 57 59 60 61 61 61
38 38 38 38 38 38 37 38 39 39 40 41 42 43 44 45 45 46 46 46 47 47 47 49 50 50 49 48 46 46 45 45 46 46 45 44 44 44 44 44 45 45 45 46 46 45 45 45 46 47 47 47 47 47 46 45 45 45 46 47 47 48 48 48 49 49 49 50 50 51 51 52 52 53 54 54 55 56 56 57 58 59 59 60 60
39 38 38 38 37 37 38 39 40 41 41 42 42 43 43 43 43 44 44 45 46 47 49 49 50 50 49 48 48 47 46 46 46 46 45 45 46 46 46 45 45 45 46 46 47 47 47 48 48 48 48 48 48 47 47 47 47 47 47 48 48 48 49 49 49 49 50 50 50 51 51 52 52 53 53 54 55 55 56 56 57 58 58 59 59
40 39 38 38 38 38 39 39 40 41 42 42 41 40 40 39 39 40 41 42 44 45 46 47 48 48 48 49 49 49 48 48 46 46 46 46 45 45 44 43 43 44 45 46 46 46 45 45 45 45 45 45 45 45 46 46 46 47 47 48 48 48 48 49 49 49 50 50 51 51 51 52 52 53 53 54 54 55 55 56 57 57 58 58 58
45 44 43 44 43 42 41 41 41 40 41 42 43 41 39 37 37 37 37 38 40 42 43 44 45 45 46 47 47 47 46 46 45 45 45 43 42 41 41 41 42 44 45 45 44 44 43 43 43 43 43 43 44 44 45 46 46 47 47 48 48 48 48 49 49 50 50 51 51 51 52 52 52 53 53 53 54 54 55 55 56 57 57 57 58
53 52 51 51 50 49 48 47 45 44 44 44 45 44 42 39 36 35 36 36 38 41 42 42 42 43 43 43 43 43 43 42 42 42 41 41 40 41 42 44 45 45 45 46 46 46 46 46 45 45 44 44 45 45 46 47 47 48 48 49 49 49 49 49 50 50 51 51 51 51 52 52 53 53 53 53 54 54 54 55 55 56 56 57 57
56 56 56 55 55 54 54 53 52 51 50 49 49 49 47 45 42 41 41 41 41 43 43 42 42 43 43 43 43 43 43 43 42 42 42 43 44 45 46 47 47 47 48 49 49 49 48 47 46 46 46 46 47 47 48 49 49 49 49 49 49 50 50 50 51 51 51 51 52 52 52 53 53 53 53 54 54 53 54 54 54 55 55 56 56
57 57 57 57 57 56 56 56 56 56 56 56 56 55 55 55 54 54 53 52 51 50 49 47 47 47 47 47 47 48 48 47 47 46 46 47 47 48 48 49 50 51 51 51 50 49 48 48 49 49 49 49 50 50 51 51 51 51 50 50 50 50 51 51 51 51 51 51 52 52 52 52 53 53 53 53 53 53 53 53 53 53 54 54 55
59 59 58 58 58 58 57 57 58 57 57 57 58 58 58 59 59 60 60 60 58 57 56 55 55 55 54 52 50 51 51 50 49 49 49 49 50 51 51 52 53 53 53 52 51 50 50 51 51 52 52 52 52 52 52 52 52 51 51 50 50 50 50 50 50 50 50 51 51 51 51 51 51 51 51 51 51 51 51 51 52 52 53 54 54
61 61 61 60 60 59 58 58 58 58 57 57 57 57 57 57 57 58 58 59 59 58 57 56 57 58 59 58 56 55 55 54 54 56 56 56 55 55 54 54 54 54 54 54 54 53 53 53 53 53 53 53 53 53 52 52 51 50 49 49 48 48 48 48 48 48 48 48 49 49 49 49 49 49 49 48 48 49 49 50 50 51 51 52 52
61 60 60 59 60 60 59 59 59 59 59 58 58 58 57 57 57 57 57 57 58 57 57 56 55 57 58 59 58 58 58 57 57 58 58 56 55 55 56 56 57 57 56 56 55 55 54 54 54 53 53 53 52 52 51 50 49 48 47 47 47 47 47 47 47 46 46 46 46 46 46 46 46 45 45 46 46 47 47 48 48 49 49 49 49
58 58 58 58 59 60 61 62 62 62 62 61 60 60 59 59 58 57 56 56 56 56 56 56 56 56 57 57 57 57 58 58 59 59 58 57 57 58 58 59 58 58 57 56 56 55 54 54 53 53 52 52 51 50 49 49 48 47 46 46 46 46 46 45 45 45 44 44 43 43 43 43 43 43 43 44 44 45 45 46 46 46 46 47 48
60 61 62 64 64 65 65 65 65 64 64 63 63 62 61 60 60 59 58 57 57 56 56 55 56 56 56 56 56 56 56 57 58 58 58 58 58 58 58 58 58 58 57 57 56 55 54 53 52 51 51 50 50 49 49 48 48 47 46 45 45 44 44 44 43 42 42 41 41 40 40 40 41 41 41 42 43 43 43 44 44 45 46 47 48
67 68 69 70 70 69 68 68 67 67 66 66 65 64 64 62 61 60 60 59 57 57 56 56 56 56 55 56 57 57 57 58 58 58 58 57 57 58 58 58 58 58 57 56 55 55 53 52 51 51 50 50 50 49 49 49 48 46 45 44 43 42 42 41 40 39 39 38 38 38 38 39 39 40 40 41 42 42 43 43 44 45 45 45 45
70 70 70 70 69 68 66 66 66 66 66 66 66 65 65 64 63 63 63 61 59 60 59 59 58 58 57 59 60 61 61 61 61 61 61 60 60 59 59 59 59 58 57 56 55 54 53 52 51 51 50 50 50 49 49 48 47 45 44 42 41 40 39 38 37 37 36 36 37 37 37 38 38 39 40 40 41 42 42 42 42 42 42 44 46
66 66 66 66 66 66 65 64 63 63 63 63 63 64 64 64 64 65 65 64 63 64 64 64 63 61 60 62 63 64 64 64 63 62 62 62 61 61 60 59 59 58 57 56 54 53 53 52 51 51 50 50 49 48 47 46 45 43 41 39 38 37 36 35 34 34 34 35 35 35 36 36 37 38 39 39 39 39 39 39 40 42 44 45 45
63 63 64 64 65 65 64 63 63 62 62 62 62 62 62 62 62 63 64 64 64 65 65 65 65 65 65 66 67 66 66 64 63 62 61 61 60 60 59 59 58 57 56 54 53 51 51 51 50 49 49 48 47 46 44 43 41 39 38 36 35 34 33 32 32 32 32 32 33 34 34 35 36 36 36 36 36 37 38 40 42 43 42 38 34
64 64 64 65 65 65 64 64 64 63 63 62 62 62 61 62 62 62 62 62 62 62 62 62 63 63 64 65 65 64 63 61 59 58 57 56 56 56 56 56 55 55 53 52 50 49 49 49 48 47 46 45 44 43 41 39 38 36 35 34 32 31 31 30 30 30 30 30 31 31 32 32 32 33 33 34 35 37 39 40 39 35 32 29 27
64 64 64 63 63 63 63 63 63 63 63 63 63 62 62 62 62 62 62 61 61 61 60 60 60 60 61 62 62 60 58 56 55 53 52 52 51 51 51 52 52 51 50 50 48 48 47 46 45 44 43 42 41 39 37 36 34 33 32 31 30 29 28 28 28 28 28 28 27 28 28 29 30 31 33 34 36 37 36 33 29 26 25 24 24
60 59 58 57 56 56 57 57 57 58 58 59 59 60 60 61 61 61 61 60 60 59 59 59 59 58 59 60 59 57 55 53 52 50 49 48 48 47 47 48 48 48 47 47 47 46 44 43 41 41 40 39 37 36 34 33 31 30 29 28 27 27 26 26 26 25 24 23 23 24 26 28 29 30 32 33 34 32 28 24 22 22 21 21 22
53 51 48 47 46 46 47 48 48 48 49 49 50 52 53 54 56 57 57 57 57 57 57 58 58 58 58 59 58 56 54 52 50 48 47 46 45 45 45 45 45 45 44 44 44 42 41 39 38 38 37 36 35 33 31 30 29 28 27 26 25 25 24 23 22 20 19 19 21 23 25 26 28 29 30 31 29 25 21 19 19 19 18 18 20
48 44 42 40 39 39 40 41 41 40 40 41 42 44 46 47 49 50 51 52 53 53 54 55 56 55 56 57 57 55 53 51 49 48 46 45 44 44 44 44 43 42 41 41 40 38 37 36 36 36 35 34 32 30 29 28 27 26 25 25 24 23 21 19 16 15 16 17 19 21 23 25 27 29 29 27 23 19 17 17 17 17 16 17 19
41 39 38 37 36 35 36 37 37 37 37 37 38 40 41 42 43 44 44 45 47 47 48 50 51 51 51 52 53 52 50 49 48 47 45 44 43 43 43 42 41 39 38 37 36 35 34 35 35 34 33 31 29 28 27 26 25 25 24 23 21 19 17 15 13 13 15 16 16 18 22 24 26 27 26 23 19 17 16 17 17 16 16 16 17
31 31 32 33 33 32 32 33 34 35 35 36 37 37 38 38 37 37 38 39 40 40 41 43 45 46 46 46 47 47 47 46 46 45 43 42 41 41 41 40 38 37 36 35 34 33 33 33 33 32 30 28 27 26 26 25 24 23 21 19 18 16 14 13 12 12 13 13 15 17 19 22 24 25 23 20 18 17 16 16 16 16 15 15 16
23 25 26 28 28 28 28 29 30 32 34 35 35 36 36 35 34 33 33 34 34 34 35 37 39 39 39 39 40 42 43 43 43 42 42 41 41 40 39 37 36 35 34 33 32 32 32 31 30 29 27 26 25 25 24 23 21 19 17 17 16 15 13 11 11 11 11 12 14 15 16 18 20 22 21 18 16 16 16 16 16 15 15 14 15
18 19 20 21 21 22 24 26 28 31 33 34 35 36 36 36 35 34 33 33 32 32 32 32 33 33 34 34 36 38 38 38 39 39 40 39 39 37 36 34 34 33 32 32 32 31 30 28 27 26 25 24 23 22 21 19 18 17 17 17 16 14 12 12 10 9 10 11 12 13 14 15 17 20 21 19 16 14 15 15 14 15 15 15 16
11 12 13 15 17 19 22 24 27 29 30 31 32 33 34 35 36 36 35 35 34 33 31 31 31 30 31 31 32 33 34 34 35 37 37 37 35 34 33 32 31 31 30 31 31 29 27 25 24 23 22 21 20 19 18 18 17 17 17 16 15 14 13 12 9 8 9 10 10 11 12 13 14 17 19 19 18 15 13 14 15 16 16 17 17
6 8 10 13 15 17 19 21 22 22 21 21 23 24 26 28 30 31 33 34 34 32 31 30 29 28 28 29 29 29 30 31 31 33 33 33 31 31 30 30 29 29 30 30 28 25 23 23 22 21 20 19 19 18 18 18 18 17 16 16 15 15 14 11 8 7 8 9 9 10 10 10 13 15 16 18 19 18 15 13 14 16 18 19 18
4 6 8 9 11 12 13 14 14 14 14 14 15 16 18 20 21 23 25 26 27 27 26 25 24 23 23 23 23 25 26 27 28 29 28 27 27 28 28 27 27 27 28 26 24 22 21 21 20 19 19 19 19 19 19 18 17 16 16 16 16 15 14 11 9 7 7 8 8 9 9 9 11 13 15 17 18 19 19 17 15 14 16 17 17
3 4 5 6 6 6 6 6 7 8 9 9 8 6 5 7 10 13 14 15 15 15 15 15 16 17 18 19 19 20 21 23 25 25 24 24 24 25 25 24 24 24 23 22 21 20 20 19 19 20 20 20 19 19 18 17 16 16 16 16 16 15 13 11 9 8 7 7 8 8 8 8 9 12 14 16 18 19 20 20 19 17 15 14 14
2 3 3 3 3 2 1 1 3 5 6 6 5 4 5 5 5 8 9 9 7 6 7 9 11 12 14 16 18 18 19 20 22 22 23 23 23 22 21 20 20 20 19 19 19 19 19 20 20 21 21 20 18 17 17 16 16 17 16 17 17 16 14 12 10 8 7 8 8 9 8 8 8 10 12 14 16 19 20 21 22 21 19 16 14
3 2 1 1 2 2 2 3 4 5 6 5 4 5 7 8 8 10 11 11 9 7 5 8 10 11 11 11 10 11 13 16 18 20 21 21 20 18 17 17 17 18 18 19 20 20 20 21 21 20 19 18 17 17 16 16 16 17 17 17 17 16 14 12 10 9 8 8 9 9 9 8 8 9 11 12 14 16 18 20 21 22 22 21 18
1 1 2 3 4 3 4 4 5 5 4 3 3 3 5 7 8 8 8 8 8 7 8 10 12 13 11 9 7 6 9 13 15 17 19 18 18 18 19 19 18 19 20 20 21 21 21 20 19 18 17 17 17 17 17 17 17 16 17 17 17 16 14 12 11 10 9 9 10 10 10 10 9 9 10 11 12 14 16 18 20 21 22 22 22
2 3 4 4 4 4 4 4 5 5 5 4 3 1 2 4 6 6 6 7 8 8 8 9 11 12 11 10 9 9 11 13 15 16 17 19 20 21 21 20 20 21 21 21 21 20 19 18 17 16 16 16 17 17 17 17 16 16 16 17 17 16 14 13 12 11 11 11 11 11 12 11 10 10 10 10 11 12 14 16 18 20 21 23 23
4 5 6 6 6 5 5 5 5 6 6 6 5 4 3 4 5 5 5 7 10 10 9 9 10 11 10 10 12 13 14 14 14 16 18 20 21 21 21 20 20 20 20 20 19 17 16 16 15 15 16 16 16 16 16 17 16 16 17 17 17 16 15 15 14 13 12 12 12 12 13 13 12 11 11 11 10 11 12 14 16 18 20 22 24
9 9 9 9 8 7 7 6 6 6 6 6 6 5 5 4 4 4 5 7 8 8 9 11 13 12 12 12 14 14 14 14 15 17 18 20 21 21 20 20 19 18 17 17 16 15 15 14 14 14 15 15 15 16 16 16 17 17 17 17 17 17 17 16 15 14 14 14 13 13 14 14 14 13 12 12 11 10 11 13 15 17 18 20 23
12 12 12 11 10 10 11 10 8 7 6 5 4 3 5 5 5 5 6 7 7 8 11 14 15 12 12 13 13 13 14 16 17 17 18 19 19 19 19 18 17 16 15 15 14 14 14 13 13 13 14 14 14 15 16 16 17 17 17 18 18 18 18 17 17 16 16 15 15 14 14 15 15 15 14 14 13 11 11 11 13 15 17 18 21
Wind_Direction
226 215 212 212 213 214 216 217 220 224 229 232 237 244 249 253 255 257 259 262 263 261 256 252 250 249 250 255 261 262 258 253 251 250 251 254 256 258 259 264 268 271 273 274 275 274 272 269 267 266 265 264 264 264 264 262 261 261 261 262 264 265 266 266 266 266 267 269 270 272 273 274 274 274 274 274 274 275 275 276 276 277 278 281 282
210 203 204 206 211 214 216 217 220 223 227 232 237 243 247 251 254 256 258 262 265 266 263 260 256 251 248 251 258 260 257 252 248 246 248 251 253 254 256 262 268 271 273 273 273 273 273 271 270 268 267 266 266 266 267 267 267 267 267 267 267 268 269 269 269 269 269 269 269 269 269 270 271 271 271 271 271 272 272 272 272 271 271 271 273
197 199 202 207 212 216 218 220 223 227 233 238 241 243 245 248 252 255 258 260 263 265 265 263 260 255 249 248 253 255 251 247 245 247 252 255 256 256 258 261 265 267 269 269 269 270 271 272 274 273 271 270 269 271 272 272 272 273 274 275 275 275 274 273 271 270 270 270 270 270 270 270 270 270 271 271 271 271 271 271 271 270 269 268 267
195 197 202 209 214 217 220 223 227 231 236 240 242 243 245 247 251 254 255 256 259 261 263 262 260 257 252 248 249 250 247 245 248 255 261 262 260 260 262 264 265 266 265 265 265 266 268 270 274 275 273 271 270 272 273 274 275 275 276 278 279 280 280 278 277 275 273 271 270 269 269 270 270 271 271 271 271 271 270 270 269 269 269 268 267
198 203 208 212 217 222 225 227 231 234 237 239 240 241 243 246 249 251 251 251 254 257 259 260 260 260 258 253 249 249 248 248 252 259 262 261 259 260 263 265 266 266 265 264 265 265 267 269 271 271 272 272 272 272 273 275 276 278 279 280 281 281 280 279 278 278 276 274 273 271 270 270 270 270 271 271 271 272 271 271 270 269 269 268 268
210 217 222 223 223 224 227 230 232 234 237 239 240 241 241 243 245 247 248 247 248 251 254 257 259 261 259 254 250 250 251 251 256 262 262 259 257 258 259 261 263 264 265 266 266 266 268 270 270 268 268 269 270 271 272 274 276 277 279 280 280 280 280 279 277 276 275 274 273 273 272 272 271 270 270 271 271 272 272 272 271 271 271 270 270
227 233 237 236 232 228 228 229 231 236 238 239 240 242 242 244 246 248 248 246 247 249 252 253 255 256 256 254 252 252 254 256 260 263 261 258 256 257 258 260 262 263 264 265 266 266 266 267 266 264 263 264 266 268 269 270 272 273 276 278 278 277 276 275 276 275 274 273 272 272 271 271 271 269 268 268 269 269 269 269 269 270 270 271 271
245 246 245 242 236 232 229 227 230 237 241 241 242 243 243 245 249 251 251 250 251 253 256 255 252 252 252 253 255 257 259 261 263 262 261 258 257 257 257 257 258 260 262 264 264 264 263 262 262 261 261 261 263 265 265 265 266 268 272 274 275 275 274 274 274 274 274 274 273 272 272 271 271 270 269 267 266 266 265 266 267 268 268 268 269
258 259 255 250 244 238 234 233 236 242 246 247 247 247 248 249 252 254 255 256 256 256 257 255 253 254 256 258 259 260 261 262 262 261 261 260 257 255 254 254 256 259 264 266 266 264 263 261 261 261 261 262 262 262 263 263 265 268 271 272 272 273 273 274 273 271 271 272 273 273 273 272 271 271 271 270 269 268 268 267 268 269 269 269 269
258 261 261 260 258 253 246 243 243 246 252 256 256 256 257 257 257 257 257 259 259 256 254 255 256 259 261 262 262 262 262 261 259 259 260 260 258 256 255 255 257 260 265 268 267 265 264 263 263 263 263 263 264 264 264 265 267 270 272 272 272 271 269 268 269 270 270 270 271 272 272 272 272 271 271 271 271 271 271 271 270 270 271 270 270
258 259 261 261 262 259 254 251 249 250 254 258 260 262 263 262 262 261 260 261 260 257 257 259 260 261 262 262 261 261 260 259 258 257 257 257 257 257 257 257 259 262 266 267 267 266 265 264 264 264 264 264 266 267 267 267 268 269 270 270 270 269 267 266 267 270 271 270 270 270 271 272 272 271 271 272 272 272 272 272 272 272 273 273 272
260 260 261 261 261 261 259 257 256 255 256 258 260 262 263 262 262 262 263 264 263 261 263 264 263 261 260 260 259 259 258 257 257 256 257 257 257 258 259 260 261 264 265 266 266 265 264 264 265 265 265 265 266 267 267 268 269 269 269 269 268 268 267 268 269 270 271 271 271 271 271 271 271 270 270 271 271 271 271 272 272 272 273 274 275
261 261 261 261 261 261 260 260 259 258 259 259 260 261 261 261 260 260 262 264 264 264 266 266 264 260 259 258 257 257 256 256 256 256 257 258 259 260 261 262 264 266 266 266 265 265 264 265 265 267 267 268 267 267 266 266 266 267 267 268 268 268 268 269 270 271 271 271 272 272 273 273 272 272 271 270 270 269 269 269 270 271 271 272 273
263 262 261 261 260 260 259 259 259 259 259 258 258 258 259 260 260 259 259 259 260 261 262 262 261 260 258 257 256 255 255 255 255 256 257 258 259 261 263 264 266 266 267 267 266 266 266 266 267 268 269 270 270 269 267 267 267 267 268 268 268 269 269 270 271 271 272 272 273 273 273 273 273 273 273 272 271 270 269 269 269 270 270 270 271
263 260 258 258 258 258 258 259 259 259 258 257 257 257 257 258 259 259 258 258 258 257 256 255 257 258 259 259 257 256 255 255 255 256 257 258 260 261 263 264 265 266 266 266 266 267 268 269 269 270 271 271 271 271 270 269 269 269 270 271 271 271 272 272 272 272 272 273 273 273 273 273 273 273 273 273 273 272 272 271 271 271 271 271 271
261 257 256 256 256 256 257 258 260 260 259 259 258 258 258 257 257 257 257 258 258 257 256 255 257 258 260 260 259 258 257 256 257 258 258 259 260 262 263 264 265 266 266 266 266 266 268 270 271 271 271 271 271 272 271 271 270 270 271 272 273 273 273 273 273 274 274 274 274 274 274 274 274 274 274 274 274 274 274 273 273 273 273 273 273
259 258 258 258 258 258 259 260 261 261 261 261 261 260 259 258 258 257 257 257 256 256 256 257 258 259 259 260 259 259 259 259 259 259 259 261 262 264 265 266 267 268 268 268 268 269 269 270 271 271 271 271 271 271 272 272 272 272 272 273 273 274 275 275 275 275 275 276 276 276 275 275 275 275 275 275 275 275 275 275 275 275 275 275 275
260 261 262 262 262 262 263 263 262 261 261 261 261 259 257 256 256 256 255 255 255 255 255 256 257 258 259 259 260 260 261 261 260 260 261 262 264 265 266 267 269 270 271 271 271 272 272 272 272 272 272 272 271 271 271 272 273 274 274 274 274 275 275 276 276 276 277 277 277 277 277 277 276 276 276 276 277 277 277 277 277 277 277 277 277
263 264 264 265 265 266 266 265 265 264 263 261 258 256 253 252 252 253 254 255 255 255 255 255 256 257 258 259 260 260 261 260 260 261 261 262 262 263 266 269 272 273 273 272 272 273 274 275 276 276 275 274 273 272 272 273 275 276 276 276 276 276 276 276 277 277 278 278 278 278 278 278 278 277 277 277 278 278 278 278 278 278 278 278 278
263 264 264 265 266 267 266 266 266 265 263 260 256 252 249 247 248 252 256 257 257 256 256 256 256 256 257 257 258 258 258 258 258 259 260 259 261 264 269 272 273 273 273 273 274 274 275 277 278 278 277 276 275 274 275 276 277 278 278 278 277 277 277 277 278 278 278 278 278 278 278 278 278 278 278 278 278 278 279 279 279 280 280 279 279
264 264 265 265 265 265 265 265 264 264 262 260 257 254 252 251 250 254 258 260 259 259 259 258 257 257 257 257 257 257 257 257 258 258 259 260 262 266 269 272 272 272 273 273 274 274 274 276 278 279 278 278 278 277 277 278 279 280 280 279 279 279 279 279 278 278 278 278 278 278 278 278 278 278 278 278 279 279 279 279 279 280 280 280 280
267 267 266 266 266 265 265 265 264 264 263 262 260 259 258 258 259 259 261 262 261 260 260 260 259 259 260 260 260 259 259 259 259 258 259 261 263 265 268 270 271 272 273 273 273 273 274 275 277 278 279 279 279 279 279 279 280 280 280 280 279 279 279 279 278 278 278 278 278 278 278 278 278 278 278 279 279 279 279 280 280 280 280 280 281
268 269 269 269 268 268 267 267 266 266 265 264 263 262 262 261 262 262 263 264 264 263 262 260 258 258 259 260 260 260 260 260 259 259 261 263 264 265 267 269 271 272 274 274 274 275 276 277 278 279 279 279 279 280 280 280 280 280 280 279 279 278 278 277 277 277 277 278 278 278 278 278 278 278 279 279 279 280 280 280 280 281 281 281 282
269 269 270 270 270 270 270 269 269 269 268 268 267 266 265 265 264 263 263 264 264 264 263 262 260 259 259 259 259 261 262 263 264 265 266 267 267 267 268 269 272 273 275 276 276 277 277 278 279 279 279 279 279 279 279 279 279 279 279 279 278 277 277 277 277 277 277 277 278 278 278 279 279 279 279 279 280 280 280 280 281 281 282 283 283
269 269 270 271 271 271 271 271 270 270 270 269 269 268 268 267 267 266 265 264 264 264 263 262 262 261 260 260 260 261 262 263 263 265 267 267 267 267 269 271 273 274 275 275 276 277 278 279 279 279 279 279 279 279 279 279 278 278 278 278 278 277 277 277 277 278 278 278 278 278 279 279 279 280 280 280 280 280 281 281 282 283 284 284 285
269 269 270 271 271 271 271 271 271 271 270 270 269 269 268 268 267 267 266 265 264 263 262 262 261 261 261 261 261 261 261 261 261 262 263 264 265 267 269 271 272 273 274 275 276 276 277 278 278 278 278 278 278 278 278 278 278 278 278 278 277 277 277 278 279 279 279 279 279 279 279 279 279 279 280 280 280 281 282 283 284 284 285 285 286
268 268 269 270 271 271 270 269 268 268 268 268 268 268 267 267 267 266 265 264 264 263 262 262 262 261 261 262 261 261 261 261 261 261 262 263 265 267 269 270 271 272 274 275 276 276 276 276 277 276 276 276 276 276 277 277 277 277 277 277 277 277 277 278 278 278 279 279 279 279 279 279 279 280 280 281 281 282 283 284 285 286 286 287 287
270 270 271 271 271 271 270 268 266 265 265 265 265 265 265 265 265 264 264 263 263 263 262 261 261 262 262 262 262 262 262 262 263 263 264 265 267 268 269 270 271 272 273 274 274 275 275 275 275 274 274 274 275 275 275 276 276 277 276 276 276 277 277 277 277 278 278 278 278 278 278 279 279 280 281 282 283 284 285 286 287 287 288 289 290
272 271 271 271 271 270 269 268 266 266 265 264 263 262 262 262 261 261 261 261 261 261 261 261 261 261 262 262 263 263 264 265 266 267 268 268 269 269 270 271 271 272 272 272 272 273 273 273 272 272 272 273 273 273 274 274 275 275 276 276 276 276 275 275 276 276 276 277 277 278 278 279 279 280 281 283 284 285 287 288 289 290 291 293 293
270 269 269 268 268 268 267 266 266 265 264 264 263 262 261 260 259 259 259 259 258 259 260 260 260 260 260 261 262 263 265 266 267 269 269 270 271 271 271 271 271 271 271 271 271 271 271 271 271 271 271 271 271 272 272 273 273 274 275 275 275 274 274 274 274 274 274 275 276 277 277 278 279 281 282 284 286 288 290 291 292 293 294 294 294
268 267 266 266 266 266 265 265 265 264 263 263 262 261 261 260 259 258 258 258 257 257 258 258 259 259 259 260 261 262 264 265 266 267 267 269 270 271 271 271 271 271 271 271 270 270 269 269 269 269 269 269 269 270 271 271 272 273 273 273 273 273 272 272 273 273 273 274 275 276 278 279 281 283 285 288 290 291 292 292 293 293 293 293 292
268 267 266 265 265 264 264 264 263 263 262 262 261 261 260 259 259 258 258 258 258 257 257 257 257 258 258 259 260 261 262 263 264 264 264 265 266 267 269 270 270 271 271 270 270 269 268 267 268 268 268 268 268 269 270 270 270 270 271 271 270 270 271 271 271 272 273 275 277 278 280 282 284 287 289 291 291 291 291 292 292 292 291 291 291
266 265 264 264 264 264 263 263 262 262 261 261 261 260 260 260 259 259 258 258 257 257 257 257 257 257 257 258 259 260 261 262 262 262 262 263 263 264 265 267 267 268 268 269 268 267 266 266 267 267 267 267 267 268 268 268 268 268 268 268 268 268 268 269 271 273 276 277 279 280 283 286 288 289 291 291 292 292 292 292 291 290 290 292 294
263 263 263 263 263 263 263 263 262 262 261 261 261 261 260 260 260 260 259 258 258 257 257 257 256 257 257 258 259 259 260 260 260 260 260 260 261 262 263 263 264 265 266 266 266 265 265 266 266 266 265 266 266 266 266 266 266 266 265 266 266 266 266 269 272 274 275 276 278 281 285 287 289 292 295 296 296 294 292 289 288 290 293 296 299
261 261 262 262 262 262 262 262 263 263 263 262 262 261 261 260 260 260 259 258 257 257 256 256 256 256 256 257 259 259 259 259 258 258 258 258 258 258 259 260 261 262 263 264 264 265 265 265 264 264 264 264 264 263 263 263 263 263 263 263 263 264 267 270 271 269 270 274 279 284 288 292 297 302 304 301 297 292 288 287 289 291 294 298 301
260 259 259 259 259 259 260 260 261 262 263 263 262 262 261 260 260 260 260 259 258 257 256 256 256 255 255 256 257 258 257 257 256 255 255 255 254 255 256 257 258 260 262 263 264 264 264 264 263 262 262 262 262 261 261 260 260 261 261 260 262 265 266 263 259 260 268 276 283 290 297 303 308 311 309 302 294 288 286 287 288 288 292 299 303
255 253 252 254 255 257 258 258 258 259 260 262 263 262 262 261 260 260 259 259 258 257 256 255 255 254 253 254 255 255 255 254 252 251 251 251 251 251 252 253 255 258 260 262 263 263 261 261 260 260 260 260 260 259 258 258 259 259 258 258 260 259 252 246 248 259 270 280 290 300 306 312 317 318 314 303 291 285 284 284 283 284 290 299 305
245 245 247 249 251 254 255 255 255 257 259 262 264 264 263 261 260 259 258 257 256 255 254 253 253 253 252 252 252 252 251 249 248 247 246 246 246 247 248 250 252 255 257 259 260 260 259 258 258 259 258 258 257 256 256 256 255 254 253 253 251 242 233 235 248 262 273 286 297 304 310 318 325 328 322 307 291 283 282 279 276 279 288 299 307
234 238 242 245 248 251 254 255 257 259 261 263 264 264 263 263 261 258 256 255 254 253 251 251 252 252 251 250 249 248 247 246 244 242 241 241 241 242 244 246 249 251 254 256 256 257 257 257 257 257 256 254 253 252 251 249 247 244 242 240 233 226 224 235 250 263 278 291 297 303 313 324 333 338 336 324 303 287 282 277 272 275 285 297 308
228 232 237 241 246 252 255 258 261 264 266 267 267 266 264 263 260 257 255 254 253 252 251 251 251 250 249 247 245 244 244 242 239 237 236 236 237 238 240 243 245 247 250 252 253 254 254 254 254 253 251 249 246 244 240 237 233 231 228 225 220 219 225 235 246 264 283 292 296 304 316 329 339 345 348 344 329 306 289 280 275 276 282 290 302
218 226 235 244 252 258 262 265 268 271 272 272 271 268 266 262 259 256 254 253 253 252 251 251 249 247 245 242 240 239 238 236 234 233 232 231 232 234 236 238 241 243 245 247 249 251 251 250 249 247 242 238 233 229 225 223 222 221 219 217 216 219 226 232 243 266 283 291 297 305 316 333 345 350 353 356 352 339 314 291 281 279 282 287 295
220 236 247 256 262 267 271 275 278 280 280 278 275 272 268 262 257 253 250 250 249 249 248 249 248 244 240 237 235 234 232 230 229 228 228 228 229 231 233 234 236 238 240 243 246 246 245 243 239 234 227 221 216 215 215 216 217 216 215 216 218 222 226 230 241 263 280 291 298 302 313 336 350 353 356 360 1 358 348 326 300 286 283 285 291
244 252 259 265 270 274 279 283 287 291 292 292 290 284 272 260 251 245 243 242 242 242 244 244 241 236 233 232 230 228 227 225 225 226 226 225 226 228 229 231 232 235 237 240 240 237 233 229 223 215 210 207 207 209 212 214 215 216 217 219 221 224 227 231 239 257 276 291 298 302 313 335 350 357 1 3 3 4 4 357 341 315 296 288 287
246 251 256 262 266 273 281 287 291 297 303 309 315 311 285 250 232 225 224 224 225 228 230 231 229 227 225 223 222 223 222 221 222 223 223 222 223 225 228 229 231 231 231 228 224 220 216 211 205 201 201 203 206 209 212 214 216 217 219 222 224 226 229 234 240 254 272 289 300 307 314 330 344 353 1 5 6 7 8 6 2 353 336 312 294
271 253 246 250 259 264 290 332 330 335 345 353 8 43 67 87 126 151 154 153 155 169 194 209 214 211 207 207 210 215 218 217 217 218 218 219 221 223 223 221 219 215 211 207 205 204 201 198 196 198 201 203 206 211 214 217 219 221 222 224 227 229 231 237 244 257 272 288 300 308 313 323 335 343 351 0 5 7 8 8 7 4 359 348 327
278 256 266 339 342 338 348 349 346 353 5 15 28 56 74 87 107 121 126 126 125 123 149 184 184 169 162 173 190 203 209 211 212 213 213 213 212 207 200 195 192 191 192 194 195 195 194 194 196 199 202 205 210 215 219 221 223 226 227 229 231 231 233 239 248 260 274 286 296 304 309 316 324 331 339 349 357 1 4 6 7 6 5 2 354
306 357 27 28 23 11 356 347 343 346 353 5 26 61 92 111 124 133 144 155 152 130 122 141 158 162 166 179 194 199 197 198 200 199 198 194 186 179 177 178 183 189 193 193 192 191 192 195 199 202 206 211 216 221 224 225 227 230 232 233 234 234 236 243 251 261 273 284 292 299 304 308 315 321 326 335 347 355 358 360 3 5 6 6 3
15 34 39 41 37 24 10 3 3 6 12 23 34 56 147 159 160 164 175 184 185 172 148 142 155 169 179 188 191 185 179 179 180 179 176 172 170 172 178 185 193 196 194 191 190 192 195 199 204 209 215 219 224 227 229 230 231 233 236 237 237 238 240 246 254 261 270 279 288 294 299 302 306 312 316 321 334 346 351 353 357 2 6 7 6
44 47 50 52 48 40 33 29 29 30 32 37 44 60 116 171 186 187 178 175 183 188 183 172 171 177 182 182 179 176 175 176 175 172 171 173 177 184 191 194 194 192 189 188 191 195 200 206 213 218 222 226 230 232 233 235 236 237 239 240 241 242 245 249 254 260 267 275 282 289 295 298 300 304 308 312 320 332 342 347 352 357 3 6 7
57 53 51 49 47 46 46 44 41 42 44 43 45 61 93 130 162 173 166 161 167 175 176 174 178 183 186 184 182 182 184 186 184 182 183 187 191 193 193 190 186 185 187 191 196 202 208 213 219 223 227 231 235 236 238 239 240 241 242 242 243 245 248 250 254 260 266 272 278 284 290 295 297 299 303 305 309 318 331 339 345 352 358 3 6
61 59 57 53 49 49 50 48 44 46 52 54 58 81 106 122 136 150 156 156 158 162 164 167 173 181 186 187 190 194 193 189 187 186 188 189 188 187 184 182 183 187 193 198 203 208 212 216 221 226 231 235 239 241 242 242 242 242 243 243 244 246 248 250 253 258 263 268 273 278 284 290 294 296 299 302 303 308 318 328 336 345 353 358 3
Height
5740 5741 5743 5744 5745 5746 5747 5748 5748 5749 5750 5751 5752 5753 5753 5753 5753 5754 5754 5754 5754 5755 5756 5756 5756 5756 5757 5757 5757 5757 5757 5757 5757 5757 5757 5757 5757 5757 5757 5757 5758 5758 5758 5758 5759 5759 5759 5759 5758 5758 5758 5758 5758 5758 5758 5758 5758 5758 5758 5758 5757 5757 5757 5757 5756 5756 5755 5755 5755 5755 5754 5754 5754 5754 5754 5754 5754 5754 5754 5753 5753 5753 5753 5753 5752
5738 5739 5740 5741 5743 5743 5744 5745 5746 5747 5748 5749 5750 5750 5750 5751 5751 5751 5752 5752 5752 5753 5753 5754 5754 5754 5754 5755 5755 5755 5755 5755 5755 5755 5755 5755 5755 5755 5756 5756 5756 5756 5756 5756 5756 5756 5756 5756 5756 5756 5756 5756 5756 5756 5756 5756 5756 5756 5756 5756 5755 5755 5755 5755 5754 5754 5753 5753 5753 5752 5752 5752 5751 5751 5751 5751 5751 5751 5751 5751 5751 5750 5750 5750 5750
5736 5737 5738 5739 5740 5741 5742 5742 5743 5744 5745 5746 5747 5747 5748 5748 5748 5749 5749 5749 5750 5750 5751 5751 5751 5751 5752 5753 5753 5753 5753 5754 5754 5754 5753 5753 5754 5754 5754 5754 5754 5754 5754 5754 5754 5754 5754 5754 5753 5753 5753 5753 5753 5753 5753 5753 5754 5753 5753 5753 5753 5753 5752 5752 5752 5752 5751 5751 5751 5750 5750 5750 5749 5749 5749 5748 5748 5748 5748 5748 5748 5748 5748 5748 5748
5733 5735 5736 5737 5738 5738 5739 5740 5741 5742 5742 5743 5743 5744 5745 5745 5746 5746 5747 5747 5747 5747 5748 5748 5748 5748 5749 5750 5750 5751 5751 5751 5752 5752 5752 5752 5752 5752 5752 5752 5751 5752 5752 5752 5752 5751 5751 5751 5751 5751 5751 5750 5750 5750 5750 5750 5750 5751 5751 5750 5750 5750 5749 5749 5749 5749 5749 5748 5748 5748 5747 5747 5747 5747 5746 5746 5746 5746 5745 5745 5745 5745 5744 5744 5744
5731 5733 5734 5734 5735 5736 5737 5737 5738 5738 5739 5739 5740 5741 5742 5742 5743 5744 5744 5744 5744 5745 5745 5745 5745 5745 5746 5747 5747 5748 5749 5749 5749 5749 5749 5749 5749 5749 5749 5749 5749 5749 5748 5749 5749 5749 5749 5748 5748 5748 5748 5748 5747 5747 5747 5747 5747 5747 5747 5747 5747 5747 5747 5746 5746 5746 5745 5745 5745 5745 5744 5744 5744 5744 5744 5743 5743 5743 5742 5742 5742 5741 5741 5741 5741
5730 5731 5732 5733 5733 5734 5734 5735 5735 5736 5736 5737 5737 5738 5739 5740 5741 5741 5741 5742 5742 5742 5742 5742 5742 5742 5742 5743 5744 5745 5745 5746 5746 5747 5747 5747 5747 5746 5746 5746 5746 5746 5746 5746 5746 5746 5746 5746 5746 5745 5745 5745 5745 5744 5744 5744 5744 5744 5744 5744 5744 5744 5743 5743 5742 5742 5742 5742 5742 5741 5741 5741 5740 5740 5740 5740 5739 5739 5739 5738 5738 5737 5737 5737 5737
5728 5729 5730 5730 5731 5732 5732 5732 5733 5733 5734 5735 5735 5736 5737 5738 5738 5738 5739 5739 5739 5739 5739 5740 5740 5739 5739 5740 5740 5741 5742 5743 5743 5743 5744 5743 5743 5743 5743 5743 5743 5743 5743 5743 5743 5743 5743 5743 5742 5742 5742 5741 5741 5741 5742 5742 5741 5741 5741 5741 5740 5740 5740 5739 5739 5738 5738 5738 5737 5738 5737 5737 5737 5737 5736 5736 5736 5735 5735 5734 5733 5733 5733 5733 5732
5725 5726 5727 5727 5728 5729 5730 5730 5731 5731 5732 5734 5733 5733 5734 5735 5735 5735 5735 5736 5736 5736 5737 5737 5737 5737 5737 5737 5737 5738 5739 5739 5740 5740 5740 5740 5740 5740 5740 5740 5740 5740 5739 5739 5739 5739 5739 5739 5739 5738 5738 5739 5739 5738 5738 5738 5738 5738 5738 5737 5737 5737 5737 5736 5735 5734 5734 5733 5733 5733 5733 5733 5733 5733 5733 5732 5731 5731 5730 5729 5729 5729 5728 5728 5728
5723 5724 5724 5725 5726 5726 5727 5728 5728 5729 5730 5731 5730 5730 5731 5732 5732 5732 5732 5732 5733 5733 5733 5734 5734 5734 5734 5734 5734 5734 5735 5735 5736 5736 5736 5736 5736 5736 5736 5736 5736 5736 5735 5736 5736 5735 5735 5736 5735 5734 5734 5735 5735 5735 5735 5734 5734 5734 5734 5734 5733 5733 5733 5733 5731 5730 5729 5729 5728 5728 5728 5728 5728 5728 5728 5728 5727 5726 5725 5725 5724 5724 5723 5723 5722
5720 5720 5721 5722 5723 5724 5725 5726 5726 5726 5727 5727 5726 5727 5727 5728 5729 5729 5729 5729 5729 5729 5729 5730 5731 5730 5730 5730 5730 5730 5731 5731 5731 5732 5732 5732 5732 5732 5732 5732 5732 5731 5731 5731 5731 5731 5731 5731 5731 5730 5730 5730 5730 5731 5731 5730 5729 5729 5729 5729 5729 5728 5728 5728 5726 5725 5725 5724 5724 5724 5723 5723 5723 5724 5723 5723 5722 5721 5720 5720 5719 5718 5717 5717 5717
5716 5717 5718 5718 5719 5720 5721 5722 5723 5723 5723 5723 5723 5723 5724 5724 5725 5725 5725 5725 5725 5725 5725 5725 5726 5726 5726 5726 5726 5726 5726 5726 5727 5727 5728 5728 5728 5727 5727 5727 5727 5727 5727 5727 5727 5727 5727 5727 5726 5726 5726 5726 5725 5726 5725 5724 5724 5724 5724 5724 5724 5723 5723 5722 5721 5721 5720 5719 5719 5719 5718 5717 5718 5718 5718 5717 5717 5716 5715 5714 5713 5712 5711 5711 5711
5711 5712 5713 5714 5714 5715 5716 5716 5717 5718 5719 5719 5719 5719 5719 5719 5720 5720 5720 5720 5720 5720 5720 5721 5721 5720 5720 5721 5721 5721 5721 5722 5722 5722 5723 5723 5723 5723 5722 5722 5722 5722 5722 5722 5722 5722 5722 5722 5722 5721 5721 5721 5720 5720 5720 5719 5719 5719 5718 5718 5718 5718 5717 5716 5716 5716 5715 5714 5713 5713 5713 5712 5712 5712 5712 5711 5710 5710 5709 5707 5706 5705 5704 5704 5704
5706 5707 5708 5708 5709 5709 5710 5710 5711 5712 5713 5713 5713 5713 5712 5713 5714 5715 5715 5715 5714 5714 5714 5715 5715 5715 5715 5715 5716 5716 5716 5716 5717 5717 5717 5717 5717 5717 5717 5717 5717 5717 5718 5718 5717 5717 5717 5717 5717 5716 5716 5716 5715 5715 5714 5714 5713 5713 5713 5712 5712 5712 5712 5711 5710 5710 5709 5708 5708 5707 5707 5706 5705 5705 5705 5705 5704 5703 5702 5701 5699 5699 5698 5697 5697
5701 5701 5702 5702 5702 5703 5703 5703 5704 5705 5706 5706 5707 5707 5707 5707 5708 5709 5710 5709 5709 5709 5708 5708 5708 5708 5709 5709 5710 5710 5710 5711 5711 5711 5711 5711 5712 5712 5712 5712 5712 5712 5712 5712 5712 5712 5711 5711 5711 5711 5710 5710 5710 5709 5709 5708 5708 5707 5707 5707 5706 5706 5706 5705 5705 5704 5703 5702 5701 5701 5700 5699 5698 5698 5697 5697 5696 5695 5695 5694 5693 5692 5691 5690 5690
5694 5694 5695 5695 5695 5696 5696 5697 5697 5698 5699 5699 5699 5700 5700 5701 5702 5702 5703 5703 5703 5703 5703 5702 5702 5702 5702 5703 5704 5704 5705 5705 5705 5705 5706 5706 5707 5707 5707 5707 5707 5707 5707 5707 5707 5706 5706 5706 5706 5705 5705 5705 5704 5704 5703 5703 5703 5702 5701 5701 5700 5700 5700 5699 5699 5698 5697 5696 5695 5695 5694 5693 5692 5691 5690 5689 5689 5688 5687 5686 5685 5684 5683 5683 5682
5687 5688 5688 5689 5690 5690 5691 5691 5691 5692 5692 5692 5692 5693 5693 5694 5695 5695 5696 5696 5696 5697 5697 5697 5697 5697 5697 5697 5697 5698 5699 5699 5700 5700 5701 5701 5701 5701 5701 5701 5701 5701 5701 5702 5701 5701 5701 5701 5700 5700 5700 5700 5699 5698 5698 5697 5697 5697 5696 5695 5695 5694 5694 5693 5692 5692 5691 5690 5689 5688 5687 5687 5686 5685 5684 5683 5681 5680 5679 5679 5677 5676 5676 5675 5675
5682 5682 5683 5684 5684 5685 5685 5686 5686 5686 5686 5687 5687 5687 5687 5687 5688 5689 5689 5689 5690 5690 5690 5690 5691 5690 5690 5691 5691 5692 5693 5693 5694 5695 5695 5696 5695 5695 5695 5696 5696 5696 5696 5696 5696 5696 5696 5696 5695 5694 5694 5694 5693 5692 5692 5691 5691 5691 5690 5689 5689 5688 5687 5686 5685 5685 5684 5683 5682 5681 5680 5680 5679 5678 5677 5676 5674 5673 5672 5671 5670 5669 5668 5667 5667
5676 5677 5678 5678 5678 5679 5679 5680 5680 5681 5681 5681 5681 5681 5681 5682 5682 5683 5683 5683 5683 5683 5683 5684 5684 5684 5684 5685 5685 5686 5687 5688 5688 5689 5690 5690 5690 5690 5690 5690 5690 5690 5690 5690 5690 5690 5690 5690 5689 5688 5688 5688 5687 5687 5686 5685 5684 5684 5684 5683 5682 5682 5681 5679 5678 5678 5677 5676 5675 5674 5674 5673 5672 5671 5670 5669 5667 5666 5665 5663 5662 5661 5660 5659 5658
5670 5671 5672 5672 5672 5673 5673 5674 5674 5675 5675 5675 5676 5676 5676 5676 5677 5677 5677 5677 5677 5677 5677 5677 5678 5678 5678 5678 5679 5680 5681 5681 5682 5683 5684 5684 5684 5684 5684 5685 5685 5684 5684 5684 5684 5684 5684 5683 5683 5682 5682 5682 5681 5680 5680 5679 5678 5677 5677 5676 5675 5675 5674 5673 5672 5671 5670 5669 5668 5668 5667 5666 5664 5663 5662 5662 5660 5658 5657 5656 5654 5653 5652 5651 5650
5664 5664 5665 5665 5665 5666 5666 5667 5667 5668 5669 5669 5670 5670 5670 5670 5671 5670 5670 5670 5670 5671 5671 5672 5672 5672 5672 5673 5673 5673 5674 5675 5676 5677 5677 5678 5678 5678 5678 5679 5679 5679 5678 5678 5678 5678 5677 5677 5676 5676 5675 5675 5675 5674 5674 5673 5672 5671 5670 5669 5669 5668 5667 5666 5665 5664 5664 5663 5662 5661 5659 5658 5657 5656 5655 5654 5653 5651 5650 5648 5647 5646 5644 5643 5642
5656 5656 5657 5657 5658 5658 5659 5659 5660 5660 5661 5662 5663 5663 5663 5664 5664 5664 5664 5665 5665 5665 5665 5665 5665 5665 5666 5667 5667 5667 5668 5668 5669 5670 5671 5672 5672 5672 5672 5672 5673 5673 5672 5672 5671 5671 5671 5671 5670 5670 5669 5669 5668 5668 5667 5667 5666 5665 5664 5663 5662 5661 5660 5660 5659 5658 5657 5656 5654 5653 5652 5651 5650 5648 5647 5646 5645 5644 5643 5641 5640 5639 5637 5636 5634
5647 5647 5648 5648 5649 5650 5650 5651 5651 5652 5652 5653 5654 5655 5656 5656 5657 5657 5657 5658 5659 5659 5659 5659 5659 5659 5660 5661 5661 5661 5661 5662 5662 5663 5664 5665 5665 5666 5666 5666 5666 5666 5665 5665 5665 5665 5664 5664 5663 5663 5663 5662 5661 5661 5660 5659 5659 5658 5657 5657 5656 5655 5653 5653 5652 5650 5649 5648 5647 5646 5645 5643 5642 5641 5640 5638 5637 5636 5635 5634 5633 5631 5630 5629 5627
5638 5638 5639 5639 5640 5640 5641 5642 5642 5642 5643 5644 5645 5646 5647 5648 5648 5649 5649 5650 5650 5651 5652 5652 5653 5653 5654 5654 5654 5654 5654 5655 5655 5656 5656 5657 5658 5658 5659 5659 5659 5659 5658 5658 5658 5658 5657 5657 5657 5656 5656 5655 5654 5654 5653 5652 5652 5651 5650 5650 5649 5648 5647 5646 5645 5643 5642 5641 5640 5639 5637 5636 5635 5634 5632 5631 5630 5629 5627 5627 5625 5624 5623 5621 5620
5629 5630 5630 5630 5631 5631 5632 5632 5633 5633 5634 5634 5635 5636 5637 5638 5639 5640 5641 5641 5641 5642 5643 5644 5645 5645 5646 5646 5647 5646 5647 5647 5647 5648 5648 5649 5650 5651 5651 5652 5652 5652 5651 5651 5651 5651 5650 5650 5650 5649 5648 5648 5647 5647 5646 5645 5645 5644 5643 5642 5642 5641 5639 5638 5638 5636 5635 5634 5633 5631 5630 5629 5628 5627 5626 5624 5623 5622 5621 5620 5619 5617 5616 5615 5613
5621 5621 5621 5622 5622 5622 5623 5623 5624 5625 5625 5625 5626 5627 5628 5629 5630 5630 5631 5632 5633 5634 5635 5636 5637 5637 5637 5638 5638 5638 5639 5640 5640 5640 5641 5641 5642 5643 5644 5644 5644 5644 5644 5644 5643 5643 5643 5643 5642 5642 5641 5640 5640 5640 5639 5638 5638 5637 5636 5635 5635 5634 5632 5631 5630 5629 5628 5627 5626 5625 5624 5623 5622 5621 5620 5618 5617 5616 5615 5614 5613 5611 5610 5608 5607
5612 5613 5613 5613 5614 5614 5615 5615 5615 5616 5616 5617 5618 5618 5619 5620 5621 5622 5622 5623 5624 5625 5627 5628 5629 5629 5629 5630 5629 5629 5631 5631 5632 5633 5633 5634 5635 5635 5636 5636 5636 5636 5636 5636 5636 5636 5636 5635 5635 5634 5634 5633 5633 5633 5632 5631 5631 5630 5630 5629 5628 5627 5626 5625 5624 5623 5622 5621 5620 5619 5618 5617 5616 5615 5614 5613 5611 5610 5609 5608 5607 5605 5604 5602 5600
5604 5604 5604 5604 5605 5605 5605 5606 5607 5607 5607 5608 5609 5609 5610 5611 5612 5613 5613 5614 5615 5616 5618 5620 5621 5621 5621 5621 5621 5621 5623 5623 5623 5624 5625 5626 5627 5628 5628 5628 5628 5628 5628 5628 5628 5628 5628 5628 5627 5627 5626 5626 5626 5625 5625 5624 5624 5624 5623 5622 5621 5620 5619 5618 5617 5617 5616 5615 5614 5613 5612 5611 5610 5609 5608 5607 5606 5605 5604 5602 5601 5599 5598 5596 5594
5594 5594 5594 5594 5594 5595 5595 5595 5596 5597 5598 5598 5599 5600 5601 5602 5603 5604 5604 5605 5606 5607 5609 5612 5612 5613 5614 5613 5612 5613 5614 5614 5614 5616 5617 5618 5619 5620 5620 5619 5619 5620 5620 5620 5620 5620 5620 5620 5620 5619 5619 5619 5618 5618 5618 5617 5617 5617 5616 5615 5615 5614 5613 5612 5612 5611 5611 5610 5609 5608 5607 5606 5605 5604 5603 5602 5600 5599 5598 5597 5595 5593 5591 5590 5588
5584 5584 5583 5582 5583 5583 5583 5584 5585 5586 5586 5587 5589 5590 5591 5592 5594 5594 5594 5597 5598 5598 5599 5602 5603 5605 5606 5604 5603 5604 5605 5605 5606 5607 5607 5609 5610 5611 5611 5611 5611 5611 5612 5612 5612 5612 5612 5612 5612 5612 5612 5611 5611 5611 5611 5610 5610 5610 5609 5609 5609 5608 5607 5607 5606 5606 5605 5605 5604 5603 5602 5601 5600 5599 5598 5597 5595 5594 5593 5591 5589 5587 5585 5583 5581
5574 5573 5572 5571 5571 5571 5572 5573 5574 5575 5576 5576 5577 5579 5580 5582 5583 5583 5584 5587 5589 5588 5589 5592 5593 5595 5596 5595 5594 5595 5595 5596 5598 5599 5598 5599 5600 5601 5602 5602 5602 5603 5603 5604 5604 5605 5604 5604 5604 5604 5604 5604 5604 5604 5604 5604 5604 5604 5603 5603 5603 5603 5602 5602 5602 5601 5601 5600 5599 5599 5597 5596 5595 5594 5593 5592 5590 5589 5587 5585 5583 5582 5580 5578 5576
5563 5563 5562 5561 5561 5561 5562 5563 5564 5565 5566 5566 5566 5568 5569 5571 5572 5572 5574 5576 5578 5578 5580 5582 5583 5584 5585 5584 5585 5587 5587 5587 5589 5590 5590 5590 5591 5592 5592 5593 5593 5594 5595 5595 5596 5597 5596 5596 5596 5597 5597 5597 5597 5597 5597 5598 5598 5598 5598 5598 5598 5598 5597 5597 5597 5597 5596 5596 5595 5594 5593 5592 5591 5590 5588 5587 5585 5584 5582 5580 5578 5576 5574 5572 5570
5552 5551 5551 5550 5550 5551 5552 5553 5554 5554 5555 5556 5556 5558 5559 5560 5561 5562 5564 5566 5567 5568 5570 5572 5573 5574 5575 5575 5576 5578 5579 5580 5581 5582 5582 5583 5584 5584 5585 5585 5585 5586 5586 5587 5588 5589 5589 5589 5589 5590 5590 5590 5591 5591 5592 5592 5592 5593 5593 5593 5593 5593 5593 5593 5592 5592 5592 5591 5590 5589 5589 5588 5586 5585 5584 5582 5581 5579 5577 5575 5573 5571 5569 5567 5566
5540 5540 5540 5539 5540 5540 5541 5542 5543 5544 5545 5546 5546 5547 5549 5549 5550 5552 5554 5555 5557 5558 5560 5562 5563 5565 5566 5566 5567 5569 5571 5572 5573 5574 5575 5576 5577 5577 5578 5578 5578 5579 5579 5579 5580 5581 5581 5582 5583 5584 5584 5584 5585 5586 5586 5587 5587 5588 5588 5588 5588 5588 5589 5588 5588 5588 5587 5587 5586 5585 5585 5584 5582 5581 5580 5578 5576 5574 5571 5570 5568 5566 5565 5563 5561
5529 5530 5530 5530 5530 5531 5531 5532 5533 5534 5535 5536 5537 5538 5538 5539 5540 5542 5543 5545 5547 5549 5550 5552 5553 5555 5557 5558 5558 5560 5563 5564 5565 5566 5568 5569 5570 5570 5571 5571 5571 5572 5573 5573 5573 5574 5575 5576 5577 5578 5578 5579 5580 5580 5581 5582 5583 5583 5583 5583 5584 5584 5584 5584 5584 5584 5584 5583 5583 5582 5581 5580 5579 5577 5575 5573 5570 5568 5566 5565 5564 5562 5561 5559 5558
5519 5521 5521 5522 5523 5523 5523 5523 5525 5525 5526 5527 5528 5528 5529 5530 5531 5532 5533 5535 5537 5539 5540 5541 5543 5546 5547 5548 5549 5551 5554 5556 5558 5559 5560 5562 5563 5564 5564 5564 5565 5566 5567 5567 5567 5569 5570 5571 5571 5572 5573 5573 5575 5576 5577 5577 5578 5578 5579 5579 5580 5580 5581 5581 5581 5581 5581 5581 5580 5579 5578 5577 5575 5573 5570 5567 5565 5563 5562 5561 5560 5559 5558 5557 5555
5511 5513 5514 5515 5516 5516 5516 5516 5518 5519 5519 5519 5520 5520 5520 5521 5522 5523 5524 5525 5527 5529 5530 5531 5533 5537 5538 5538 5540 5543 5545 5548 5550 5551 5553 5555 5556 5557 5557 5558 5559 5560 5561 5562 5562 5564 5565 5565 5566 5567 5568 5569 5570 5571 5572 5573 5573 5574 5575 5575 5576 5577 5577 5577 5578 5578 5578 5578 5577 5576 5575 5573 5571 5568 5565 5562 5560 5559 5558 5557 5557 5556 5555 5554 5552
5503 5505 5506 5508 5509 5510 5510 5511 5511 5512 5513 5513 5513 5513 5513 5514 5514 5515 5516 5516 5518 5519 5521 5521 5524 5527 5528 5529 5531 5534 5536 5539 5541 5543 5545 5547 5549 5550 5551 5553 5554 5556 5556 5557 5558 5559 5560 5560 5561 5562 5563 5564 5566 5567 5568 5568 5569 5570 5571 5572 5572 5573 5574 5575 5575 5576 5576 5575 5575 5574 5572 5569 5567 5564 5560 5558 5556 5555 5555 5554 5554 5553 5552 5551 5549
5495 5498 5500 5502 5504 5505 5505 5505 5506 5507 5507 5507 5507 5507 5507 5507 5508 5508 5509 5509 5510 5511 5513 5513 5515 5517 5519 5522 5524 5525 5528 5530 5533 5535 5538 5540 5542 5544 5546 5547 5549 5551 5552 5552 5553 5554 5555 5556 5557 5558 5559 5560 5561 5562 5563 5564 5565 5566 5567 5568 5569 5570 5571 5572 5573 5573 5573 5573 5572 5571 5569 5567 5564 5561 5557 5554 5553 5552 5552 5551 5550 5550 5549 5548 5547
5491 5493 5495 5497 5499 5500 5500 5501 5501 5502 5502 5501 5501 5500 5500 5501 5501 5502 5503 5503 5504 5505 5506 5507 5508 5510 5512 5514 5516 5517 5519 5522 5525 5528 5531 5533 5535 5538 5540 5542 5544 5546 5547 5548 5549 5550 5550 5551 5552 5554 5555 5556 5557 5558 5560 5561 5562 5563 5564 5565 5567 5568 5569 5570 5571 5571 5571 5570 5570 5569 5567 5565 5562 5559 5555 5552 5550 5549 5549 5548 5547 5547 5546 5546 5545
5488 5490 5492 5494 5495 5496 5497 5497 5497 5497 5496 5496 5495 5495 5494 5495 5495 5496 5496 5497 5498 5499 5501 5502 5503 5504 5506 5507 5509 5510 5513 5516 5518 5521 5524 5527 5529 5533 5535 5538 5539 5541 5542 5543 5544 5545 5546 5547 5549 5550 5551 5552 5553 5555 5556 5558 5559 5560 5562 5563 5564 5565 5567 5568 5568 5568 5568 5568 5567 5566 5565 5563 5560 5557 5554 5551 5548 5547 5546 5545 5545 5544 5544 5543 5542
5487 5489 5491 5492 5493 5494 5494 5494 5493 5492 5491 5490 5489 5488 5488 5488 5488 5489 5490 5491 5493 5494 5496 5497 5498 5499 5500 5502 5503 5505 5507 5510 5513 5516 5518 5522 5525 5528 5531 5533 5535 5536 5537 5539 5540 5541 5542 5544 5545 5546 5548 5549 5550 5552 5553 5555 5557 5558 5559 5561 5562 5563 5565 5565 5565 5565 5565 5565 5564 5564 5563 5561 5559 5556 5553 5550 5548 5545 5544 5543 5542 5542 5541 5540 5540
5487 5489 5490 5491 5491 5491 5491 5491 5490 5488 5487 5485 5484 5483 5481 5481 5481 5482 5484 5485 5487 5489 5491 5492 5493 5495 5496 5497 5499 5501 5503 5506 5509 5512 5514 5518 5521 5523 5526 5528 5530 5532 5533 5534 5536 5537 5539 5540 5541 5543 5545 5546 5548 5550 5552 5553 5554 5556 5557 5559 5560 5561 5562 5563 5563 5563 5563 5563 5562 5562 5561 5559 5557 5555 5553 5550 5547 5545 5543 5541 5540 5539 5539 5538 5537
5487 5488 5489 5489 5490 5489 5489 5488 5487 5486 5484 5482 5481 5479 5477 5476 5476 5477 5479 5481 5483 5485 5487 5488 5490 5491 5493 5495 5497 5499 5501 5504 5507 5509 5511 5514 5517 5519 5521 5524 5526 5527 5529 5531 5533 5534 5536 5537 5539 5540 5542 5544 5546 5548 5550 5551 5552 5554 5555 5556 5558 5559 5560 5560 5560 5560 5560 5560 5560 5559 5558 5557 5555 5554 5552 5550 5547 5545 5542 5540 5539 5537 5536 5535 5534
5488 5488 5489 5489 5489 5488 5488 5487 5486 5485 5483 5481 5479 5477 5475 5474 5474 5475 5477 5479 5481 5483 5484 5486 5488 5489 5491 5493 5496 5498 5500 5502 5504 5506 5509 5511 5513 5515 5518 5520 5522 5524 5526 5528 5530 5531 5533 5535 5537 5539 5541 5543 5545 5546 5548 5549 5551 5552 5553 5554 5555 5556 5557 5557 5558 5558 5558 5558 5557 5557 5556 5555 5554 5552 5551 5549 5547 5544 5542 5540 5538 5536 5534 5533 5532
5488 5489 5489 5489 5488 5488 5487 5486 5485 5484 5483 5481 5480 5478 5476 5476 5475 5476 5477 5479 5481 5482 5484 5485 5487 5488 5490 5492 5495 5496 5498 5500 5502 5504 5506 5508 5510 5513 5515 5517 5519 5521 5523 5525 5527 5529 5531 5533 5536 5538 5540 5542 5543 5545 5546 5547 5549 5550 5551 5552 5553 5554 5554 5555 5555 5555 5555 5555 5555 5554 5554 5553 5552 5551 5550 5548 5546 5544 5542 5540 5538 5535 5533 5531 5530
5489 5489 5490 5489 5489 5488 5487 5486 5485 5484 5483 5482 5481 5479 5478 5478 5478 5479 5479 5480 5482 5483 5484 5485 5487 5488 5489 5492 5494 5495 5496 5498 5500 5502 5504 5506 5509 5511 5514 5516 5518 5520 5522 5524 5526 5528 5530 5533 5535 5537 5539 5540 5542 5543 5544 5545 5547 5548 5549 5550 5551 5551 5552 5552 5552 5552 5552 5552 5552 5552 5551 5551 5550 5549 5548 5547 5545 5544 5542 5540 5538 5535 5533 5531 5528
5490 5490 5490 5489 5489 5488 5487 5486 5485 5484 5484 5483 5482 5481 5480 5480 5480 5481 5481 5482 5483 5485 5485 5486 5487 5489 5490 5492 5494 5495 5496 5498 5499 5501 5503 5506 5509 5511 5513 5515 5517 5519 5521 5524 5526 5528 5530 5532 5534 5536 5538 5539 5540 5541 5542 5543 5544 5545 5546 5547 5548 5549 5549 5550 5550 5550 5550 5550 5550 5550 5549 5549 5548 5547 5547 5546 5544 5543 5541 5539 5537 5535 5533 5530 5528
5491 5490 5490 5489 5489 5488 5487 5486 5485 5484 5484 5483 5482 5482 5482 5482 5482 5482 5483 5483 5485 5486 5487 5488 5489 5490 5492 5493 5495 5496 5497 5498 5500 5502 5504 5507 5509 5511 5513 5515 5517 5519 5521 5523 5526 5528 5530 5532 5533 5535 5536 5537 5538 5539 5540 5541 5542 5543 5544 5545 5546 5546 5547 5547 5547 5547 5548 5548 5547 5547 5547 5546 5546 5545 5545 5544 5543 5541 5540 5539 5537 5535 5532 5530 5528
5491 5491 5490 5489 5488 5488 5487 5486 5485 5484 5484 5483 5483 5483 5482 5482 5483 5483 5484 5484 5485 5487 5488 5489 5491 5492 5493 5495 5496 5497 5498 5500 5502 5503 5505 5508 5510 5512 5514 5515 5517 5519 5521 5523 5525 5527 5529 5530 5532 5533 5534 5535 5536 5537 5538 5539 5540 5541 5542 5542 5543 5544 5544 5545 5545 5545 5545 5545 5545 5545 5545 5544 5544 5543 5543 5542 5541 5540 5539 5537 5536 5534 5532 5530 5527
5492 5491 5491 5490 5489 5488 5488 5487 5486 5485 5485 5484 5484 5484 5484 5484 5484 5484 5485 5486 5486 5488 5489 5490 5491 5493 5494 5496 5497 5498 5500 5501 5503 5504 5506 5508 5510 5512 5514 5515 5517 5519 5521 5523 5525 5526 5528 5529 5531 5532 5533 5534 5535 5535 5536 5537 5538 5539 5539 5540 5541 5541 5542 5542 5542 5543 5543 5543 5543 5543 5542 5542 5542 5541 5540 5540 5539 5538 5537 5536 5535 5533 5531 5529 5527
5493 5493 5492 5491 5490 5489 5488 5488 5487 5486 5486 5485 5485 5485 5485 5485 5486 5486 5487 5487 5488 5489 5490 5491 5492 5494 5495 5497 5498 5499 5500 5502 5503 5505 5507 5508 5510 5512 5514 5516 5517 5519 5521 5523 5524 5525 5527 5528 5529 5530 5531 5532 5532 5533 5534 5535 5535 5536 5537 5537 5538 5539 5539 5540 5540 5540 5540 5540 5540 5540 5540 5540 5539 5539 5538 5537 5537 5536 5535 5534 5533 5532 5530 5528 5526